COSMOS 1275 DEB, 14440

Orbit data source: Space-Track

COSMOS 1275 DEB, 14440 is space debris in LEO originally from a launch on Thu, 04 Jun 1981 UTC launched from the Plesetsk Missile And Space Complex (PKMTR). Debris objects in space refer to the collection of defunct objects orbiting the Earth. Examples of debris include non-operational satellites, rocket bodies, and fragments generated from explosions, collisions, or faulty payload assembly.

Loading next visibility...
Identifier
14440, 1981-053JG
Orbit
LEO
Country
Flag of CISCIS
Related business
Manufacturer
Unknown
Mission
Spacecraft
Bus & Motor
Unknown
Mass
Unknown
Launch date (UTC)
1981-06-04 (45 years ago)
Launch vehicle
Unknown
Launch site
Plesetsk Missile And Space Complex (PKMTR)
Object type
Payload
Rocket body
Debris
Shape & HBR
Unknown shape, 0.1 m
Radar Cross Section
Small (<0.1 m²)

Expand to show TLE details & history
Last TLE update: 1 day ago

TLE from 1 day ago
0 COSMOS 1275 DEB
1 14440U 81053JG  26071.52727925  .00000793  00000-0  93325-3 0  9999
2 14440  82.9158 266.9756 0112638 314.9902 103.3600 13.64368141200392
Epoch: 2026-03-12T12:39Z
TLE epoch observation values (Epoch: 2026-03-12T12:39:16.927Z)
Latitude
58.95798°
Longitude
-81.16647°
Altitude
1,049.98 km
Speed
7.322 km/s
True Right ascension
18h 35m 19s
True Declination
58° 48' 42"
Sunlit
Object was in daylight at epoch
Visualization orbit readout
Latitude
Unknown
Longitude
Unknown
Altitude
Unknown
Speed
Unknown
Apparent Right ascension
Unknown
Apparent Declination
Unknown
Sunlit
N/A
Visualization observer readout
Local Sidereal Time
19:37:24
Azimuth
Unknown
Elevation
Unknown
Doppler factor
Unknown
Orbital elements
Apogee altitude
1,100.321 km
Perigee altitude
933.726 km
Semi-major axis
7,395.161 km
Eccentricity
0.01126
Inclination
82.9158°
RAAN
266.9756°
Arg. of periapsis
314.9902°
True anomaly
104.61163°
Mean anomaly
103.36°
Eccentric anomaly
103.98624°
Mean motion
3.41289 °/min
Orbital period
105.48 mins
BSTAR
0.00093325
Loading maneuver chart data...
Computing Atmospheric mass density...
Loading historical data...
Loading historical data...
Loading historical data...
Loading historical data...
Loading historical data...
Loading historical data...
Loading historical data...

Documentation

Showing up to 5 results
|